sat.trackr.live / text

‹ back to catalog

ION SCV-002

NORAD 47504 · 2021-006CV

PAYLOAD ACTIVE UNKNOWN

§ Identity

Operator
Country
IT
Launch date
2021-01-24
Launch site
AFETR
Launch vehicle
Mass (kg)
RCS (m²)

External: N2YO · Heavens-Above · Gunter

§ Orbital elements

Epoch: 2026-09-20T22:54:57.558240Z

Period
93.14 min
Inclination
97.1181°
Eccentricity
0.0012453
Mean motion
15.46093736 rev/d
Perigee alt
419.7 km
Apogee alt
436.6 km
Semi-major
6,806.3 km
B*
1.9319e-4
RAAN
263.9625°
Arg perigee
120.8371°
Mean anomaly
239.4106°
Rev number
31,481

§ Raw data

ION SCV-0021 47504U 21006CV  26263.95483285  .00009394  00000+0  19319-3 0  99922 47504  97.1181 263.9625 0012453 120.8371 239.4106 15.46093736314815

JSON: /api/v1/satellites/47504 · /tle

For live sub-satellite position, see the globe view (requires WebGL).

§ Visibility from observer

Set your observer location to see the next 7 days of passes ≥ 10°. The values pass through the URL so the page stays shareable.

No JS? Fill the form by hand. The geolocation button needs JavaScript.